Wind_Speed
12 12 11 11 11 11 12 11 10 9 9 10 11 11 11 10 9 9 8 8 8 8 8 7 6 6 7 6 6 6 6 6 6 5 5 4 3 3 2 2 3 3 3 4 5 6 7 7 7 7 7 7 7 6 5 5 6 6 5 6 7 8
13 13 13 12 11 12 11 10 9 9 10 10 11 12 11 10 9 9 8 7 7 8 7 6 5 4 5 5 5 5 5 5 5 5 4 4 3 2 2 1 1 2 2 3 3 4 5 7 7 7 6 6 6 4 5 6 5 6 6 6 8 9
14 15 15 14 12 10 10 9 8 9 10 11 12 11 10 9 9 8 7 6 5 6 5 4 2 2 3 4 4 4 5 5 5 6 6 5 4 4 3 2 1 1 1 2 3 2 2 4 6 7 6 6 5 4 5 6 5 6 6 7 9 8
14 15 15 14 12 10 10 10 8 9 9 11 12 9 9 9 8 8 7 6 5 4 4 3 2 2 2 2 3 3 4 4 5 5 5 5 4 3 3 3 3 3 3 3 2 1 0 2 3 5 5 4 4 5 5 5 5 6 7 9 9 8
15 16 15 14 12 10 11 10 9 9 8 10 11 9 8 8 8 8 7 6 5 4 3 3 2 2 1 1 1 1 2 3 3 3 4 4 2 3 3 3 3 3 2 2 1 1 1 2 3 4 4 4 4 5 5 5 6 6 8 10 9 8
17 17 15 13 12 11 11 9 8 10 8 9 10 8 8 7 7 7 5 4 4 3 3 2 2 2 1 2 2 1 2 2 2 2 4 3 2 2 3 2 2 2 2 2 2 2 3 3 3 3 3 3 4 4 4 5 5 5 7 8 8 8
17 17 15 13 12 11 11 9 9 10 9 9 9 8 8 7 7 6 4 4 3 3 2 2 2 2 2 2 2 2 2 2 3 2 3 3 2 2 2 2 2 3 3 2 2 3 3 3 3 2 3 3 3 4 4 4 5 5 6 7 8 9
16 17 15 13 12 10 10 9 9 10 9 9 9 8 8 7 7 6 5 4 3 3 2 3 3 2 2 2 2 3 3 2 3 2 2 2 2 2 2 3 3 2 2 2 2 3 3 3 4 3 4 4 4 4 5 5 5 5 6 9 10 11
16 17 15 13 12 11 10 9 10 11 9 10 10 9 8 7 6 6 5 5 4 4 3 3 3 3 3 3 3 3 3 3 2 2 1 2 1 2 2 2 2 2 2 3 3 3 4 4 5 4 4 4 5 5 6 6 5 5 6 9 11 11
16 16 13 12 12 11 11 10 10 11 10 10 10 9 8 7 6 6 6 5 5 5 5 4 4 4 4 3 3 3 3 3 2 2 1 1 1 1 1 2 2 2 2 3 3 4 4 4 5 5 4 4 4 5 6 5 4 5 5 9 10 10
16 15 13 12 12 11 11 10 10 10 11 11 10 9 8 7 8 7 6 6 6 6 7 6 6 5 5 4 4 3 3 3 2 1 1 1 1 1 0 1 1 2 2 3 3 4 4 4 5 6 5 4 4 5 6 5 4 4 4 8 8 9
15 14 13 12 11 11 10 10 10 10 10 9 9 10 9 8 8 7 7 7 7 7 7 8 7 6 5 5 4 3 3 2 1 1 1 2 2 2 2 2 3 3 3 4 5 5 5 4 5 5 5 4 4 5 5 5 4 3 4 5 6 8
15 14 13 12 11 12 10 10 10 10 9 9 9 10 9 9 9 7 7 7 7 7 7 7 6 5 5 5 4 3 2 2 1 1 1 2 2 2 3 4 4 4 5 5 6 5 5 5 4 4 4 3 4 4 4 3 3 3 4 5 6 6
15 14 14 12 11 12 11 10 10 10 9 10 10 10 10 10 8 7 7 8 7 7 6 6 5 5 4 4 4 3 2 2 1 1 2 2 2 2 3 4 4 4 5 6 5 4 4 4 3 3 3 3 3 3 3 3 3 4 5 5 5 5
16 15 14 14 12 12 11 10 10 10 10 11 11 10 10 9 8 8 8 7 6 5 5 5 4 5 4 4 3 3 2 2 1 1 2 2 1 2 3 3 4 5 5 4 4 4 3 2 3 3 2 1 2 2 2 2 3 4 4 4 4 5
16 15 14 14 13 12 11 11 11 10 10 11 10 10 10 9 8 9 8 6 5 4 4 3 4 4 4 3 3 3 3 2 2 2 1 2 1 2 2 3 4 5 4 4 4 3 2 2 3 2 1 1 2 2 2 3 3 3 3 4 5 7
16 15 15 15 15 14 13 13 12 11 11 10 10 10 10 10 9 9 7 6 5 4 4 4 3 4 3 3 3 3 3 2 2 2 1 1 1 2 2 3 4 5 5 3 3 2 1 3 2 1 2 2 3 4 3 4 3 2 4 6 8 9
16 16 16 17 17 15 14 14 12 11 11 11 11 12 11 9 8 8 7 7 6 5 4 4 4 4 4 3 3 4 3 1 1 0 0 1 1 1 2 3 3 4 5 4 1 2 0 2 3 3 4 4 4 5 4 4 2 3 5 7 9 9
17 18 19 18 17 15 14 14 13 12 12 12 13 13 11 9 8 8 7 7 7 5 4 4 4 4 4 4 4 3 2 0 1 1 1 1 1 2 4 4 4 4 4 4 2 2 2 4 5 5 5 5 5 5 4 3 2 4 6 7 7 8
18 19 20 19 17 16 15 15 14 14 14 13 14 13 11 10 9 8 7 6 6 6 5 5 5 5 5 4 3 2 1 1 1 0 1 1 1 3 4 4 4 3 3 2 1 2 4 5 6 6 6 6 6 5 4 2 3 5 5 5 6 7
19 19 21 19 17 16 15 16 16 15 14 13 14 14 11 9 9 9 9 8 7 6 6 5 4 4 4 3 2 2 2 2 1 1 2 3 3 4 4 3 3 2 1 2 2 3 5 5 5 6 6 6 6 5 2 2 4 4 4 6 8 9
20 18 19 18 17 15 14 15 15 15 15 14 14 13 11 10 9 10 11 10 9 8 7 6 5 5 4 4 3 2 2 3 3 3 4 3 4 3 3 3 4 3 3 4 3 4 5 6 5 4 4 5 5 3 1 3 3 4 7 9 10 10
20 18 17 17 18 16 13 14 15 15 15 14 13 12 12 12 11 10 10 8 7 8 8 7 6 5 5 3 2 2 4 4 4 4 4 3 3 2 2 4 5 4 5 5 4 3 5 8 7 5 5 6 5 2 2 2 3 6 9 10 10 10
19 18 18 19 20 17 16 18 17 15 14 13 13 13 13 12 11 10 10 7 6 6 6 5 4 3 2 2 4 5 5 5 4 4 3 1 1 2 4 5 5 5 6 5 4 3 4 7 9 8 8 7 6 6 6 5 4 8 9 10 11 10
18 19 19 21 22 20 20 21 17 14 13 13 14 14 13 12 10 9 9 7 7 6 4 3 2 2 3 5 5 6 5 5 3 2 0 2 3 4 5 5 5 5 6 6 5 4 4 5 7 9 8 6 5 4 4 5 5 7 8 9 10 10
22 23 21 22 23 22 22 20 16 14 13 14 15 14 12 11 10 8 8 7 7 6 3 1 2 4 5 6 6 5 4 3 2 2 3 4 5 5 6 5 5 5 6 7 7 6 6 7 6 7 7 6 4 3 5 6 4 5 7 8 10 10
22 24 24 23 22 22 21 18 16 15 13 14 15 14 13 11 9 8 8 8 6 4 2 2 3 4 4 5 4 2 1 2 4 5 6 6 6 6 6 5 5 6 7 8 9 9 10 10 10 9 8 6 5 7 8 7 6 5 4 5 7 9
22 25 26 25 21 20 20 18 17 16 14 13 12 14 14 11 9 8 9 7 5 3 1 2 3 3 4 3 1 1 3 5 6 7 7 7 7 7 6 6 6 7 9 9 10 11 12 12 11 11 10 10 10 10 10 10 9 6 4 4 4 5
24 25 24 25 21 19 18 17 16 15 15 14 13 14 14 11 9 9 7 5 3 2 1 1 3 3 2 1 2 4 6 7 8 8 9 8 7 7 7 7 8 9 10 11 11 11 12 12 12 12 11 11 12 12 12 12 11 9 6 5 5 3
24 22 22 23 21 18 16 15 15 15 14 14 14 15 14 11 10 8 5 4 3 2 0 2 3 3 1 1 5 7 8 9 9 9 9 8 8 8 9 9 10 11 11 11 11 11 11 12 12 12 12 12 12 12 12 13 13 11 8 6 6 5
20 21 22 21 19 16 15 15 15 14 13 13 15 15 13 11 9 6 4 3 3 2 0 2 2 2 1 3 7 8 9 9 9 9 9 9 9 10 11 11 11 12 11 11 11 11 11 12 12 11 11 12 12 12 13 13 14 12 9 8 6 6
19 19 19 19 18 16 16 16 16 14 12 13 15 13 9 8 6 5 4 4 3 2 1 1 2 2 1 5 8 9 10 10 9 10 9 9 11 11 12 12 12 12 12 11 11 11 11 11 11 11 11 12 11 12 13 14 14 13 12 11 8 7
20 18 17 18 17 16 17 17 16 15 13 15 16 11 7 6 6 5 5 4 3 3 1 1 2 1 3 7 9 10 10 10 10 10 10 11 12 13 13 12 12 12 12 12 11 11 10 10 10 11 11 11 11 12 13 13 13 13 14 14 11 8
20 20 20 19 17 16 18 17 16 16 15 16 15 10 8 7 6 5 5 4 4 3 2 3 4 3 6 9 11 11 11 10 10 11 11 12 13 14 13 13 13 12 12 12 11 11 10 10 10 11 11 11 12 12 12 12 12 12 13 14 14 11
22 23 22 20 19 17 18 17 16 17 16 15 13 10 9 8 7 6 6 5 5 6 6 7 6 5 8 11 12 12 11 11 11 12 13 14 14 14 13 13 13 12 12 11 11 10 10 10 10 11 12 12 12 12 12 12 12 12 13 14 15 15
24 22 22 20 19 18 17 18 17 17 17 15 13 12 10 9 8 7 6 5 6 8 9 7 5 9 11 13 12 12 12 12 12 13 14 14 14 14 13 12 12 12 12 11 10 10 10 10 11 11 12 11 11 12 11 12 12 12 14 15 15 15
24 21 22 20 19 18 18 18 18 19 17 15 15 13 11 10 9 7 6 7 8 9 8 5 9 13 14 14 13 12 12 12 13 14 15 15 15 14 13 12 12 11 11 10 10 10 10 11 11 11 11 11 11 12 12 12 13 13 14 15 16 15
Wind_Direction
184 185 190 187 186 196 186 173 172 168 168 166 161 161 160 155 153 151 143 138 130 122 118 114 110 114 121 127 135 142 149 152 154 158 160 165 168 176 196 218 241 256 270 277 284 289 292 292 290 293 302 309 328 347 332 325 328 331 338 345 329 310
185 183 185 184 189 199 186 167 167 169 168 166 163 162 161 157 153 152 146 141 131 124 115 100 96 105 117 119 124 128 129 134 137 138 135 134 134 133 144 174 228 255 272 287 303 307 306 310 310 306 313 327 346 345 316 325 331 331 344 331 310 310
184 186 186 184 188 193 177 160 160 167 170 168 164 162 161 157 154 154 150 142 130 122 110 97 114 120 105 99 100 106 107 114 115 113 113 108 106 106 104 96 91 72 13 11 8 5 309 314 323 325 332 342 343 325 322 334 335 341 337 309 311 323
185 188 187 185 182 179 169 161 163 164 167 170 165 163 162 160 161 161 153 143 131 123 119 127 166 116 86 77 78 86 94 100 102 104 103 93 84 77 70 56 48 44 43 45 38 36 275 292 314 327 332 333 326 324 339 343 338 344 317 302 319 333
188 188 187 183 175 177 172 164 169 164 162 172 169 166 166 166 166 160 150 142 137 137 137 141 148 129 104 108 102 88 92 97 103 100 91 87 79 62 64 60 45 41 45 34 13 338 316 308 317 329 325 325 331 335 348 341 342 346 315 309 323 328
192 188 186 181 173 180 174 164 174 168 164 176 174 169 168 171 164 152 149 145 145 150 148 157 166 174 166 142 143 134 126 122 128 113 96 98 98 80 77 80 58 39 28 0 354 352 341 331 337 349 335 339 349 349 358 349 353 355 323 317 323 325
192 185 183 180 174 178 172 167 179 172 169 177 175 170 171 172 163 156 168 166 162 169 172 186 183 185 166 145 154 149 146 135 131 126 108 100 68 61 60 44 28 16 12 4 0 16 9 344 347 359 347 355 1 0 7 358 358 359 332 316 317 327
188 182 181 178 171 174 172 172 182 174 173 179 172 174 180 173 165 171 182 175 176 184 195 205 194 193 181 165 168 159 154 142 130 119 102 94 55 32 32 14 7 9 5 12 3 11 16 353 353 358 358 359 353 355 357 356 357 355 333 308 314 332
186 183 181 176 170 175 179 177 178 174 177 181 175 181 186 172 173 187 187 178 186 197 203 209 203 200 193 180 176 165 156 151 142 130 101 86 63 22 22 3 7 15 10 24 11 0 5 356 356 358 4 358 350 354 349 356 5 358 332 305 320 343
185 181 179 176 170 175 184 178 175 178 180 182 181 184 181 175 185 192 188 187 195 204 205 206 206 200 189 178 171 166 161 157 159 151 113 83 51 27 26 354 358 14 23 36 13 3 12 3 1 357 354 356 2 359 347 359 23 25 349 314 334 4
183 179 178 176 172 177 185 179 177 184 183 183 185 179 177 185 191 192 193 196 201 208 209 204 202 199 187 174 166 169 171 165 168 162 117 79 42 28 353 332 0 15 17 31 18 13 15 12 23 16 5 11 14 1 351 359 12 44 19 333 352 21
182 178 174 173 174 179 186 186 183 183 183 188 185 176 184 194 191 193 196 200 206 207 207 203 198 193 181 169 166 172 176 173 162 132 94 54 31 349 330 356 23 25 8 13 22 19 10 13 37 37 27 21 10 1 359 0 356 16 43 20 18 22
180 178 175 178 181 181 190 197 184 175 183 191 186 186 196 198 193 196 200 205 207 202 200 198 190 177 169 166 168 167 157 156 136 94 60 44 26 347 358 11 15 20 14 19 24 21 18 20 33 46 43 22 4 6 5 11 20 26 46 40 22 15
178 180 182 183 184 184 191 198 182 176 190 193 191 198 201 198 196 200 209 209 200 196 192 187 177 162 163 167 159 152 145 152 133 79 53 42 18 349 14 18 13 17 21 27 23 22 29 29 40 47 35 20 8 16 32 39 58 61 49 29 8 5
177 180 185 183 186 189 190 194 185 185 198 197 195 200 198 195 198 205 210 201 188 187 180 172 161 151 160 163 153 157 162 165 148 97 62 35 6 11 27 26 22 19 22 28 21 24 39 54 70 68 46 41 43 49 72 80 88 77 41 2 350 353
179 180 187 185 188 192 190 191 190 193 198 195 194 196 194 194 200 205 199 182 176 176 163 154 151 150 159 163 167 177 178 175 142 95 44 14 15 40 35 30 25 11 9 26 33 23 36 82 78 84 108 132 118 118 120 116 107 78 18 342 345 350
181 183 190 190 192 194 193 192 193 198 195 190 192 194 193 196 200 198 187 175 171 170 159 154 163 165 165 163 169 190 200 185 130 99 34 352 54 66 23 16 14 357 352 6 56 37 0 102 108 196 159 162 153 143 142 130 112 48 353 342 345 348
182 186 195 197 195 194 196 195 194 199 194 189 193 195 193 194 198 193 185 182 171 167 164 161 174 172 168 172 181 208 221 202 108 85 59 28 31 30 0 0 356 348 345 334 44 91 234 149 158 188 171 168 160 148 145 132 103 7 349 344 345 349
184 192 200 199 195 194 199 198 193 196 197 197 197 197 195 193 198 195 192 191 174 164 167 170 176 169 177 191 191 209 232 275 324 355 60 50 0 347 349 352 353 350 346 323 303 131 154 179 175 184 180 173 165 156 147 127 41 353 347 349 356 4
189 198 200 199 203 204 202 197 194 197 199 204 202 197 197 199 201 196 194 200 179 165 174 182 184 181 194 200 188 209 247 277 301 25 32 21 334 330 334 346 6 358 353 337 309 130 148 181 184 186 186 179 169 158 147 95 3 344 351 9 25 31
192 202 204 205 213 212 205 198 197 202 203 209 205 194 197 206 207 202 199 199 185 179 188 195 198 197 205 205 201 237 269 294 329 349 340 345 332 326 331 356 40 39 53 91 100 134 151 164 163 165 173 183 181 169 151 26 2 0 33 48 48 44
192 202 208 210 212 213 213 204 200 203 207 211 202 191 201 211 212 215 209 201 195 197 202 207 214 214 219 221 218 256 312 331 344 341 336 337 331 335 358 37 77 95 109 112 121 159 166 155 161 180 170 179 203 225 306 356 29 69 66 61 56 47
196 206 211 212 210 211 212 205 204 206 211 214 200 195 206 208 212 215 207 199 193 197 202 208 218 222 228 237 265 324 335 337 341 338 331 334 347 16 56 81 101 116 117 116 128 176 183 168 179 219 220 209 216 199 133 73 70 77 65 58 59 54
200 209 211 212 210 207 205 205 205 205 215 216 203 205 206 199 203 201 191 188 189 195 204 213 223 229 254 320 336 331 329 328 331 328 320 338 53 82 91 99 109 121 124 127 140 170 191 179 181 195 213 232 228 190 155 139 97 69 60 55 54 53
194 199 207 210 207 206 206 208 204 202 216 217 207 207 203 200 200 190 187 193 198 206 213 221 238 325 340 339 327 320 318 314 313 301 211 122 111 106 102 104 110 117 123 131 144 159 168 181 195 196 201 227 234 199 145 150 123 75 66 61 55 50
186 193 203 206 206 207 208 207 203 201 212 219 213 201 197 212 210 196 204 205 206 209 203 219 2 357 341 329 317 311 304 288 250 182 143 125 116 109 103 104 111 114 117 123 133 146 142 146 166 178 185 202 209 146 134 163 155 100 82 64 57 55
184 194 203 204 205 207 208 205 203 204 206 215 217 198 190 207 209 204 214 209 206 197 156 35 10 352 337 328 318 302 247 192 166 149 132 122 113 109 108 111 114 112 114 119 127 137 133 128 131 134 138 141 125 119 130 149 159 141 112 77 58 53
181 193 201 204 205 204 205 204 203 205 200 203 214 201 193 201 201 200 203 200 199 179 116 28 14 1 350 340 329 149 153 155 148 137 126 120 114 114 117 117 115 111 113 117 122 131 129 123 123 116 110 107 101 98 102 117 135 135 122 118 88 55
179 189 197 201 200 197 200 201 201 202 199 202 207 199 194 197 196 192 190 186 184 182 162 38 29 16 4 23 139 142 146 146 139 132 124 120 118 120 120 117 115 112 111 112 113 117 117 114 111 106 102 99 93 89 86 92 105 108 109 116 113 114
178 185 190 193 193 191 195 196 201 206 208 211 201 191 192 193 190 182 173 174 185 212 196 60 37 26 23 149 149 147 147 142 134 128 123 122 123 121 120 117 114 112 110 109 107 105 102 100 99 99 100 96 90 87 83 80 83 89 95 94 95 103
177 183 186 190 189 188 192 195 204 212 216 212 197 190 192 186 178 164 159 187 217 252 21 55 28 28 98 162 156 151 146 139 131 126 124 124 125 122 120 119 115 113 110 107 104 99 96 95 95 94 91 90 89 87 84 80 79 81 83 83 82 79
181 183 186 193 192 189 193 200 208 210 209 203 191 185 181 170 163 163 182 209 235 266 293 49 27 23 174 167 158 152 143 136 131 129 129 127 126 123 120 119 118 116 112 108 103 99 99 98 96 92 86 85 85 82 80 78 79 81 79 79 77 68
182 181 183 193 197 196 200 207 207 198 191 193 190 178 164 166 169 179 203 218 240 263 262 5 356 332 191 171 160 152 142 138 135 133 132 130 127 124 122 122 121 118 114 108 105 104 103 99 94 90 87 84 82 80 79 77 77 75 72 73 75 70
182 185 187 194 199 198 202 208 202 186 176 185 189 175 166 180 188 201 217 218 236 254 263 306 303 249 189 173 162 152 144 141 138 137 134 131 128 126 126 125 122 118 114 111 109 107 101 97 95 92 89 86 84 83 80 78 75 72 69 67 70 70
185 192 194 195 197 198 200 204 196 181 173 177 182 176 177 191 201 213 222 221 242 261 278 291 274 212 181 171 162 152 146 143 142 140 134 131 129 128 127 125 122 119 115 113 109 105 101 99 97 93 90 88 87 86 82 80 75 71 71 66 66 69
186 195 200 196 196 201 203 199 189 179 174 174 177 181 188 199 206 214 224 235 253 271 285 281 221 183 172 166 159 152 148 146 146 142 135 133 131 127 127 125 123 120 115 111 108 107 105 102 97 92 91 90 89 89 83 80 77 71 70 68 66 65
181 192 205 201 200 206 201 192 183 176 174 176 181 187 195 204 209 218 237 250 263 280 285 235 178 170 168 163 156 151 151 149 147 142 136 133 129 127 129 128 125 119 112 110 111 110 105 100 96 91 91 92 91 89 84 79 76 72 70 68 67 64
Height
1562 1563 1565 1566 1566 1565 1564 1564 1565 1566 1567 1567 1568 1569 1570 1571 1571 1572 1572 1572 1572 1572 1573 1573 1573 1573 1573 1574 1574 1574 1575 1575 1575 1575 1575 1575 1575 1575 1576 1576 1576 1576 1576 1576 1577 1577 1576 1576 1576 1576 1576 1576 1576 1576 1576 1576 1576 1576 1576 1575 1573 1572
1561 1563 1564 1566 1566 1565 1564 1564 1565 1566 1567 1568 1568 1569 1570 1571 1572 1572 1572 1573 1573 1573 1574 1574 1574 1574 1574 1574 1574 1575 1575 1575 1575 1575 1575 1575 1575 1575 1576 1576 1576 1576 1576 1576 1576 1577 1577 1576 1576 1576 1576 1576 1576 1577 1576 1576 1575 1576 1576 1574 1572 1571
1561 1562 1563 1565 1565 1565 1565 1565 1566 1566 1567 1568 1569 1569 1570 1571 1572 1572 1573 1573 1574 1574 1575 1575 1575 1575 1575 1574 1575 1575 1575 1575 1575 1575 1576 1575 1576 1576 1576 1575 1575 1576 1576 1576 1576 1578 1578 1578 1577 1576 1576 1576 1577 1577 1576 1575 1575 1576 1575 1572 1571 1571
1561 1561 1563 1564 1565 1565 1565 1566 1566 1567 1568 1568 1569 1570 1571 1571 1572 1572 1573 1573 1574 1575 1576 1576 1576 1575 1575 1575 1575 1575 1575 1576 1576 1576 1576 1576 1576 1576 1576 1576 1575 1575 1576 1576 1577 1578 1578 1579 1578 1577 1577 1577 1577 1576 1576 1576 1575 1575 1573 1571 1570 1570
1560 1561 1562 1562 1564 1564 1564 1565 1566 1566 1568 1569 1569 1570 1571 1571 1572 1572 1573 1574 1575 1575 1576 1576 1576 1576 1576 1576 1575 1575 1576 1576 1576 1576 1576 1576 1576 1576 1576 1576 1576 1576 1576 1576 1576 1577 1577 1577 1577 1577 1577 1577 1577 1576 1576 1576 1575 1575 1572 1570 1570 1570
1559 1560 1561 1562 1563 1563 1563 1564 1565 1566 1568 1569 1569 1570 1571 1572 1572 1573 1574 1574 1575 1575 1576 1576 1576 1576 1576 1576 1576 1576 1576 1576 1577 1577 1577 1577 1577 1576 1576 1577 1576 1576 1576 1576 1576 1576 1576 1576 1576 1577 1577 1576 1576 1576 1576 1575 1574 1574 1572 1570 1570 1569
1558 1559 1560 1561 1562 1562 1562 1564 1564 1565 1568 1568 1568 1570 1571 1571 1572 1574 1574 1574 1575 1575 1575 1576 1576 1576 1576 1576 1576 1576 1576 1576 1577 1577 1577 1577 1577 1576 1576 1576 1576 1576 1576 1575 1575 1575 1575 1575 1575 1575 1575 1575 1575 1575 1574 1574 1573 1573 1571 1569 1569 1569
1557 1558 1559 1559 1561 1562 1562 1563 1563 1565 1567 1568 1568 1570 1571 1571 1573 1573 1574 1574 1575 1575 1575 1575 1575 1576 1576 1576 1576 1576 1576 1576 1577 1577 1576 1577 1577 1576 1576 1576 1576 1576 1575 1575 1574 1575 1575 1574 1574 1574 1574 1574 1574 1574 1573 1573 1573 1572 1571 1568 1568 1568
1556 1557 1558 1558 1560 1561 1561 1562 1563 1565 1567 1567 1569 1570 1571 1572 1572 1573 1573 1574 1574 1575 1575 1575 1575 1575 1575 1576 1576 1576 1576 1576 1576 1576 1576 1576 1576 1576 1576 1575 1575 1575 1575 1575 1574 1574 1574 1574 1573 1573 1573 1573 1573 1573 1572 1572 1572 1572 1571 1568 1568 1568
1555 1556 1557 1558 1559 1560 1560 1561 1563 1565 1566 1567 1568 1570 1571 1572 1572 1573 1573 1573 1574 1574 1574 1575 1575 1575 1575 1575 1575 1575 1576 1576 1576 1576 1576 1576 1576 1576 1576 1575 1575 1574 1574 1574 1574 1574 1573 1573 1573 1573 1573 1573 1572 1572 1572 1572 1572 1573 1571 1568 1568 1567
1555 1556 1557 1557 1558 1559 1560 1561 1563 1565 1566 1567 1569 1570 1571 1571 1572 1572 1572 1573 1573 1573 1574 1574 1574 1574 1575 1575 1575 1575 1575 1576 1576 1576 1575 1575 1575 1575 1575 1574 1574 1573 1573 1574 1573 1573 1573 1573 1573 1573 1572 1572 1572 1571 1571 1572 1572 1572 1572 1569 1568 1567
1554 1555 1556 1557 1558 1559 1560 1562 1563 1565 1566 1568 1569 1570 1571 1571 1571 1572 1572 1572 1572 1572 1573 1573 1574 1574 1574 1574 1574 1574 1575 1575 1575 1575 1575 1575 1575 1575 1574 1574 1573 1573 1573 1573 1573 1573 1572 1572 1573 1573 1572 1572 1571 1571 1571 1571 1571 1571 1571 1570 1569 1568
1554 1554 1555 1557 1558 1559 1561 1562 1564 1565 1567 1568 1569 1570 1570 1571 1571 1571 1571 1571 1571 1571 1572 1572 1573 1573 1574 1574 1574 1574 1574 1575 1575 1575 1575 1574 1574 1574 1574 1573 1573 1573 1572 1572 1573 1573 1573 1572 1572 1572 1572 1571 1570 1570 1570 1570 1570 1570 1570 1569 1569 1568
1553 1554 1555 1557 1558 1559 1561 1562 1564 1565 1567 1568 1569 1570 1570 1571 1571 1571 1571 1571 1571 1571 1571 1571 1572 1573 1573 1573 1573 1574 1574 1574 1574 1574 1574 1574 1574 1574 1573 1573 1573 1572 1572 1573 1573 1572 1573 1573 1572 1571 1570 1570 1570 1570 1570 1570 1570 1570 1569 1569 1568 1568
1552 1554 1555 1556 1558 1559 1560 1562 1563 1565 1566 1567 1568 1569 1570 1571 1571 1571 1571 1570 1570 1570 1570 1571 1572 1572 1573 1573 1573 1573 1573 1573 1573 1573 1573 1573 1573 1573 1573 1573 1573 1572 1572 1573 1572 1572 1572 1572 1571 1570 1570 1570 1569 1570 1570 1570 1570 1570 1569 1569 1568 1567
1551 1553 1555 1556 1557 1558 1560 1561 1563 1564 1565 1566 1567 1568 1569 1570 1570 1570 1570 1570 1570 1570 1571 1571 1571 1572 1572 1573 1573 1573 1573 1573 1573 1573 1573 1572 1572 1572 1572 1572 1572 1572 1572 1572 1572 1571 1571 1570 1570 1569 1569 1569 1569 1569 1570 1570 1570 1570 1569 1569 1568 1567
1551 1552 1554 1554 1555 1557 1558 1560 1562 1563 1564 1565 1566 1567 1568 1569 1569 1569 1569 1569 1569 1570 1571 1571 1571 1572 1572 1572 1573 1572 1572 1572 1572 1572 1572 1571 1571 1571 1571 1571 1570 1570 1570 1570 1571 1571 1570 1569 1569 1568 1569 1569 1569 1570 1570 1570 1570 1570 1569 1568 1567 1566
1550 1552 1552 1553 1554 1555 1557 1559 1561 1563 1564 1565 1565 1566 1567 1568 1568 1569 1569 1568 1568 1569 1570 1571 1571 1571 1572 1572 1572 1572 1571 1571 1571 1571 1571 1570 1570 1570 1570 1569 1569 1569 1569 1569 1569 1570 1569 1568 1568 1568 1569 1569 1569 1569 1570 1570 1570 1569 1569 1568 1567 1565
1549 1550 1550 1551 1553 1555 1556 1558 1560 1562 1563 1564 1564 1565 1566 1567 1567 1568 1568 1568 1568 1568 1570 1571 1571 1571 1571 1571 1571 1570 1570 1570 1570 1570 1570 1570 1570 1569 1569 1568 1568 1568 1567 1567 1567 1568 1568 1567 1568 1568 1568 1569 1569 1569 1570 1569 1569 1569 1568 1567 1566 1565
1548 1548 1549 1551 1552 1553 1555 1557 1560 1561 1562 1562 1563 1565 1566 1566 1567 1567 1568 1568 1567 1568 1569 1570 1570 1570 1570 1570 1570 1569 1569 1569 1569 1569 1569 1569 1569 1568 1568 1567 1567 1567 1566 1566 1566 1567 1567 1567 1567 1568 1568 1569 1569 1569 1569 1569 1569 1569 1568 1567 1566 1565
1546 1547 1547 1549 1551 1552 1554 1556 1559 1560 1560 1561 1562 1564 1565 1566 1566 1566 1567 1567 1566 1567 1569 1569 1569 1569 1569 1569 1569 1568 1568 1568 1568 1568 1568 1568 1567 1567 1566 1566 1566 1566 1566 1566 1566 1566 1566 1567 1568 1568 1569 1569 1569 1569 1569 1569 1569 1568 1568 1567 1566 1565
1544 1545 1546 1549 1551 1552 1553 1555 1558 1559 1560 1560 1561 1562 1564 1565 1566 1566 1566 1566 1566 1566 1568 1568 1568 1568 1568 1568 1568 1567 1567 1567 1567 1567 1566 1566 1566 1565 1565 1565 1565 1565 1566 1565 1565 1566 1566 1567 1569 1569 1569 1569 1569 1569 1569 1569 1569 1568 1567 1567 1566 1565
1542 1544 1545 1548 1550 1552 1553 1555 1557 1558 1559 1559 1560 1561 1562 1563 1565 1565 1565 1565 1565 1566 1567 1567 1567 1567 1567 1567 1567 1566 1566 1566 1566 1566 1565 1565 1564 1564 1564 1564 1565 1565 1565 1565 1565 1565 1565 1566 1569 1570 1570 1569 1568 1568 1569 1569 1568 1568 1567 1566 1565 1565
1543 1543 1544 1546 1549 1552 1553 1554 1556 1557 1558 1559 1560 1560 1560 1562 1563 1564 1564 1564 1564 1565 1566 1566 1566 1566 1566 1566 1566 1565 1565 1565 1565 1565 1564 1564 1564 1564 1564 1564 1564 1564 1564 1565 1565 1565 1565 1565 1566 1568 1569 1568 1567 1567 1568 1568 1568 1567 1567 1566 1565 1565
1541 1542 1541 1544 1548 1551 1552 1553 1555 1557 1557 1558 1559 1559 1560 1561 1562 1563 1563 1564 1564 1565 1565 1565 1565 1565 1565 1564 1564 1564 1564 1564 1563 1563 1563 1563 1563 1563 1563 1563 1563 1563 1563 1564 1564 1565 1565 1565 1565 1566 1566 1567 1567 1566 1566 1567 1567 1567 1567 1566 1565 1564
1540 1540 1540 1543 1547 1549 1551 1552 1554 1556 1556 1558 1559 1560 1560 1560 1561 1561 1562 1564 1564 1564 1564 1564 1564 1564 1563 1563 1563 1563 1563 1562 1562 1563 1562 1562 1562 1562 1562 1562 1563 1563 1563 1563 1564 1564 1565 1565 1565 1565 1565 1566 1566 1565 1566 1566 1567 1567 1567 1566 1565 1565
1539 1539 1540 1543 1546 1548 1549 1551 1553 1554 1556 1557 1559 1559 1560 1560 1560 1560 1562 1563 1564 1564 1564 1563 1563 1563 1562 1562 1561 1561 1561 1561 1562 1562 1562 1562 1562 1562 1562 1562 1562 1562 1562 1563 1563 1564 1565 1565 1565 1565 1566 1566 1565 1565 1565 1565 1566 1566 1566 1566 1565 1564
1537 1538 1540 1543 1545 1546 1548 1550 1552 1553 1554 1555 1557 1558 1559 1559 1559 1560 1561 1563 1563 1563 1563 1562 1562 1561 1561 1561 1560 1560 1560 1561 1561 1561 1561 1561 1561 1561 1561 1562 1562 1562 1562 1563 1563 1564 1565 1565 1566 1566 1566 1565 1565 1565 1564 1564 1565 1565 1566 1566 1565 1564
1534 1536 1539 1542 1544 1545 1547 1549 1550 1552 1553 1554 1555 1557 1558 1558 1559 1560 1561 1562 1562 1562 1561 1561 1560 1560 1559 1560 1559 1559 1560 1560 1561 1561 1561 1561 1561 1561 1561 1561 1561 1562 1562 1563 1563 1564 1564 1565 1565 1565 1565 1565 1565 1564 1564 1564 1564 1564 1565 1565 1566 1565
1532 1535 1539 1541 1542 1544 1546 1547 1549 1550 1551 1552 1553 1554 1556 1557 1558 1560 1561 1561 1561 1561 1560 1560 1559 1559 1559 1559 1559 1559 1559 1560 1560 1560 1560 1560 1560 1561 1561 1561 1561 1562 1562 1563 1564 1564 1564 1565 1565 1565 1565 1564 1564 1564 1564 1564 1564 1564 1564 1565 1565 1565
1531 1534 1537 1539 1541 1543 1545 1546 1547 1549 1549 1550 1551 1553 1554 1556 1557 1559 1560 1560 1560 1560 1559 1558 1558 1558 1558 1558 1558 1558 1559 1559 1559 1559 1560 1560 1560 1560 1561 1561 1562 1562 1563 1563 1564 1564 1564 1564 1564 1564 1564 1564 1564 1564 1564 1564 1564 1564 1564 1564 1565 1565
1530 1533 1535 1537 1539 1542 1544 1545 1546 1547 1548 1549 1551 1552 1553 1555 1557 1558 1559 1559 1559 1558 1558 1557 1557 1557 1557 1557 1557 1558 1558 1558 1558 1559 1559 1559 1560 1560 1561 1561 1562 1563 1563 1564 1564 1564 1564 1564 1564 1564 1564 1564 1564 1564 1563 1563 1563 1563 1563 1563 1564 1564
1529 1532 1534 1535 1537 1540 1541 1543 1544 1546 1547 1548 1550 1552 1552 1554 1556 1557 1558 1558 1558 1557 1556 1556 1556 1556 1556 1556 1556 1557 1557 1557 1558 1558 1559 1559 1560 1560 1561 1562 1562 1563 1563 1564 1564 1564 1565 1565 1565 1564 1564 1564 1564 1564 1564 1563 1563 1563 1563 1562 1563 1564
1528 1530 1531 1533 1535 1537 1539 1541 1542 1544 1546 1547 1549 1550 1551 1553 1555 1556 1556 1556 1556 1556 1555 1555 1555 1555 1555 1555 1556 1556 1557 1557 1558 1558 1559 1559 1560 1560 1561 1562 1563 1563 1564 1564 1564 1565 1565 1565 1565 1565 1564 1564 1564 1564 1564 1564 1563 1563 1562 1562 1562 1562
1525 1526 1528 1530 1532 1535 1537 1539 1541 1542 1544 1546 1548 1549 1551 1553 1554 1554 1555 1555 1555 1554 1554 1554 1553 1554 1554 1554 1555 1555 1556 1557 1557 1558 1558 1559 1560 1560 1561 1562 1563 1563 1564 1564 1565 1565 1565 1565 1565 1565 1565 1565 1565 1564 1564 1564 1564 1563 1563 1563 1562 1562
1524 1525 1526 1528 1530 1532 1535 1538 1539 1541 1543 1545 1547 1549 1550 1552 1552 1553 1553 1553 1553 1553 1552 1552 1552 1552 1553 1553 1554 1555 1556 1556 1557 1558 1558 1559 1560 1560 1561 1562 1563 1564 1564 1564 1565 1565 1565 1565 1565 1565 1565 1565 1565 1565 1564 1564 1564 1563 1563 1563 1562 1562
1523 1525 1525 1527 1528 1530 1533 1536 1538 1540 1542 1543 1546 1548 1549 1551 1551 1551 1552 1552 1551 1551 1550 1550 1550 1551 1552 1553 1554 1555 1555 1556 1557 1557 1558 1559 1560 1560 1562 1562 1563 1564 1564 1564 1565 1565 1565 1565 1565 1565 1565 1565 1565 1565 1564 1564 1564 1563 1563 1563 1563 1563